Location: Baia Mare
(47.6567°N, 23.5850°E)
Time: 20:46:10
(UTC+03:00)

ISS - Pass Details

Date: 18 May 2018
Orbit: 402 x 407 km, 51.6° (Epoch: 27 May)

Event Time Altitude Azimuth Distance (km) Brightness Sun altitude
Exits shadow 02:48:10 16° 294° (WNW) 1,134 -1.6 -20.1°
Maximum altitude 02:50:23 39° 358° (N) 623 -2.4 -20.0°
Drops below altitude 10° 02:53:29 10° 69° (ENE) 1,458 -0.4 -19.8°
Sets 02:55:39 0° 78° (ENE) 2,318 0.5 -19.6°
